[Iaude] MPEC B87: 2024 BD2 [a=1.44,e=0.26,i=23.6,H=23.6]
    mpec at marsden.cfa.harvard.edu 
    mpec at marsden.cfa.harvard.edu
       
    Sun Jan 21 20:21:35 EST 2024
    
    
  
M.P.E.C. 2024-B87                              Issued 2024 January 22, 01:19 UT
     The Minor Planet Electronic Circulars contain information on unusual
         minor planets, routine data on comets and natural satellites,
         and occasional editorial announcements.  They are published
    on behalf of Division F of the International Astronomical Union by the
          Minor Planet Center, Smithsonian Astrophysical Observatory,
                          Cambridge, MA 02138, U.S.A.
			  
             Prepared using the Tamkin Foundation Computer Network
                              MPC at CFA.HARVARD.EDU
            URL https://www.minorplanetcenter.net/    ISSN 1523-6714
                                    2024 BD2                                    
Observations:
     K24B02D*1C2024 01 19.50605911 30 50.274+22 46 10.70         21.04GVEB087G96
     K24B02D 1C2024 01 19.51116611 30 48.308+22 45 23.36         21.17GVEB087G96
     K24B02D 1C2024 01 19.51719911 30 45.968+22 44 27.64         20.82GVEB087G96
     K24B02D 1C2024 01 19.52230111 30 44.014+22 43 40.94         20.59GVEB087G96
     K24B02D 1C2024 01 19.53024111 30 40.972+22 42 27.65         21.32GVEB087G96
     K24B02D 1C2024 01 19.53182511 30 40.396+22 42 12.92         21.54GVEB087G96
     K24B02D 1C2024 01 19.53235611 30 40.165+22 42 08.21         21.57GVEB087G96
     K24B02D 1C2024 01 19.53288711 30 39.967+22 42 03.38         21.74GVEB087G96
     K24B02D 1C2024 01 20.52371111 24 40.007+20 08 13.99         19.81GVEB087G96
     K24B02D 1C2024 01 20.52447411 24 39.740+20 08 07.73         20.23GVEB087G96
     K24B02D 1C2024 01 20.52524111 24 39.434+20 08 00.89         20.31GVEB087G96
     K24B02D 1C2024 01 20.52600411 24 39.096+20 07 53.98               VEB087G96
     K24B02D KC2024 01 21.11854111 21 03.15 +18 33 07.6          20.5 GVEB087L01
     K24B02D KC2024 01 21.12151311 21 01.95 +18 32 38.9          20.7 GVEB087L01
     K24B02D KC2024 01 21.12448611 21 00.85 +18 32 10.3          20.8 GVEB087L01
     K24B02D KC2024 01 21.15372711 20 49.76 +18 27 26.6          20.8 GVEB087204
     K24B02D KC2024 01 21.17859411 20 40.14 +18 23 25.5                VEB087204
     K24B02D  C2024 01 21.46404611 18 58.757+17 37 35.21         20.47GVEB087F51
     K24B02D  C2024 01 21.47696711 18 53.702+17 35 30.27         20.76GVEB087F51
     K24B02D  C2024 01 21.50268611 18 43.611+17 31 20.53         20.56GVEB087F51
Observer details:
204 Schiaparelli Observatory.  Observers L. Buzzi, G. Galli.  0.84-m f/3.5
    reflector + CMO.
F51 Pan-STARRS 1, Haleakala.  Observers J. Herman, T. Lowe, P. Minguez, A.
    Schultz, I. Smith.  Measurers K. Chambers, T. de Boer, J. Fairlamb, H.
    Gao, M. Huber, C.-C. Lin, E. Magnier, Y. Ramanjooloo, R. Wainscoat, R.
    Weryk.  1.8-m Ritchey-Chretien + CCD.
G96 Mt. Lemmon Survey.  Observer A. R. Gibbs.  Measurers T. Beuden, V. F.
    Carvajal, D. Fay, J. B. Fazekas, D. C. Fuls, A. R. Gibbs, A. D. Grauer, H.
    Groeller, J. K. Hogan, R. A. Kowalski, S. M. Larson, G. J. Leonard, D.
    Rankin, R. L. Seaman, F. C. Shelly, K. W. Wierzchos.  1.5-m reflector +
    10K CCD.
L01 Visnjan Observatory, Tican.  Observer K. Korlevic.  1.0-m f/2.9 reflector
    + CCD.
Orbital elements:
2024 BD2                                                 Earth MOID = 0.1006 AU
Epoch 2023 Sept. 13.0 TT = JDT 2460200.5                Veres                   
M 299.48304              (2000.0)            P               Q                  
n   0.57052588     Peri.  151.97436     -0.21493203     -0.92523291             
a   1.4397458      Node   308.64290     +0.80445133     +0.01379737             
e   0.2616518      Incl.   23.59626     +0.55377096     -0.37914863             
P   1.73           H   23.67          G   0.15           U   9                  
Residuals in seconds of arc
240119 G96  0.1+  0.8+    240119 G96  0.0   0.1-    240121 L01  0.4+  0.2-
240119 G96  0.1+  0.3+    240120 G96  0.1-  0.7-    240121 204  0.1+  0.3-
240119 G96  0.2-  0.1-    240120 G96  0.3+  0.3+    240121 204  0.5+  0.0
240119 G96  0.1-  0.1+    240120 G96  0.2+  0.8+    240121 F51  0.2-  0.1-
240119 G96  0.1-  0.2-    240120 G96  0.4-  1.2+    240121 F51  0.2-  0.2+
240119 G96  0.3+  0.3-    240121 L01  0.2+  0.4-    240121 F51  0.2+  0.2+
240119 G96  0.0   0.2-    240121 L01  0.4-  0.3-
Ephemeris:
2024 BD2                 a,e,i = 1.44, 0.26, 24                  q = 1.0630
Date    TT    R. A. (2000) Decl.     Delta      r    Elong.  Phase     V
2023 12 23    13 25 51.5 +58 47 58   0.2708  1.0639    99.8    65.6    23.3
...
2024 01 07    12 36 21.8 +45 56 56   0.1878  1.0664   111.4    59.1    22.3
...
2024 01 15    11 56 54.2 +33 04 49   0.1510  1.0739   123.3    50.0    21.6
...
2024 01 21    11 21 47.4 +18 52 48   0.1336  1.0822   134.7    40.2    21.1
2024 01 22    11 15 37.8 +16 10 04   0.1320  1.0838   136.6    38.6    21.0
2024 01 23    11 09 25.1 +13 23 21   0.1308  1.0855   138.4    37.0    20.9
...
2024 01 29    10 31 52.9 -03 30 02   0.1327  1.0967   145.4    30.6    20.8
...
2024 02 06    09 45 20.3 -21 24 34   0.1580  1.1146   141.9    33.1    21.3
...
2024 02 21    08 44 59.0 -36 06 28   0.2438  1.1563   128.5    42.0    22.6
M. P. C. Staff               (C) Copyright 2024 MPC           M.P.E.C. 2024-B87
    
    
More information about the Iaude
mailing list